Guthrie, OK

9:12 AM CST on November 22, 2019 (GMT -0600)
Guthrie Municipal

Weather History for KGOK - October, 2019

Change the Weather History Date:

Thursday, October 17, 2019

  Actual Average Record
Temperature  
Mean Temperature 62 °F -  
Max Temperature 78 °F 73 °F 92 °F (1964)
Min Temperature 46 °F 49 °F 29 °F (1976)
Degree Days  
Heating Degree Days 4    
Growing Degree Days 12 (Base 50)    
Moisture  
Dew Point 38 °F    
Average Humidity 48    
Maximum Humidity 73    
Minimum Humidity 24    
Precipitation  
Precipitation 0.00 in - - ()
Sea Level Pressure  
Sea Level Pressure 29.96 in    
Wind  
Wind Speed 9 mph (South)    
Max Wind Speed 16 mph    
Max Gust Speed 23 mph    
Visibility 10 miles    
Events      
Averages and records for this station are not official NWS values.
T = Trace of Precipitation, MM = Missing Value Source: NWS Daily Summary

Daily Weather History Graph

Daily Weather History Graph

Search for Another Location

Airport or City:

Astronomy

Oct. 17, 2019 Rise Set
Actual Time 7:37 AM CDT 6:51 PM CDT
Civil Twilight 7:12 AM CDT 7:17 PM CDT
Nautical Twilight 6:42 AM CDT 7:47 PM CDT
Astronomical Twilight 6:12 AM CDT 8:16 PM CDT
Moon 9:30 PM CDT (10/17) 11:05 AM CDT (10/17)
Length of Visible Light 12h 05m
Length of Day
11h 13m
Waning Gibbous, 86% of the Moon is Illuminated
Oct 17
Waning Gibbous
Oct 21
Last Quarter
Oct 27
New
Nov 4
First Quarter
Nov 12
Full

Hourly Weather History & Observations

Time (CDT) Temp. Windchill Dew Point Humidity Pressure Visibility Wind Dir Wind Speed Gust Speed Precip Events Conditions
12:53 AM 46.9 °F - 37.0 °F 68% 30.08 in 10.0 mi SSE 5.8 mph - N/A   Clear
1:53 AM 48.0 °F - 37.0 °F 66% 30.07 in 10.0 mi SSE 6.9 mph - N/A   Clear
2:53 AM 48.0 °F - 36.0 °F 63% 30.07 in 10.0 mi South 3.5 mph - N/A   Clear
3:53 AM 46.0 °F 42.5 °F 37.9 °F 73% 30.06 in 10.0 mi South 6.9 mph - N/A   Clear
4:53 AM 46.9 °F - 37.9 °F 71% 30.04 in 10.0 mi South 9.2 mph - N/A   Clear
5:53 AM 48.9 °F - 37.9 °F 66% 30.04 in 10.0 mi SSE 8.1 mph - N/A   Clear
6:53 AM 46.0 °F 41.9 °F 37.0 °F 71% 30.04 in 10.0 mi SSE 8.1 mph - N/A   Clear
7:53 AM 48.0 °F - 37.9 °F 68% 30.03 in 10.0 mi South 10.4 mph - N/A   Clear
8:53 AM 53.1 °F - 39.0 °F 59% 30.03 in 10.0 mi South 9.2 mph - N/A   Clear
9:53 AM 57.9 °F - 37.9 °F 47% 30.03 in 10.0 mi South 11.5 mph - N/A   Clear
10:53 AM 64.0 °F - 37.0 °F 37% 30.02 in 10.0 mi SSW 12.7 mph - N/A   Clear
11:53 AM 69.1 °F - 37.0 °F 31% 29.99 in 10.0 mi SSW 11.5 mph - N/A   Clear
12:53 PM 72.0 °F - 36.0 °F 27% 29.97 in 10.0 mi South 12.7 mph 19.6 mph N/A   Clear
1:53 PM 73.9 °F - 36.0 °F 25% 29.94 in 10.0 mi SSW 15.0 mph - N/A   Clear
2:53 PM 75.9 °F - 37.9 °F 25% 29.90 in 10.0 mi SSW 11.5 mph 19.6 mph N/A   Clear
3:53 PM 77.0 °F - 37.9 °F 24% 29.87 in 10.0 mi SSW 13.8 mph 20.7 mph N/A   Clear
4:53 PM 77.0 °F - 37.0 °F 24% 29.86 in 10.0 mi South 15.0 mph 23.0 mph N/A   Clear
5:53 PM 75.0 °F - 37.0 °F 25% 29.85 in 10.0 mi South 10.4 mph - N/A   Clear
6:53 PM 66.0 °F - 39.0 °F 37% 29.85 in 10.0 mi SSE 6.9 mph - N/A   Clear
7:53 PM 66.0 °F - 39.9 °F 38% 29.85 in 10.0 mi SSE 10.4 mph - N/A   Clear
8:53 PM 64.0 °F - 43.0 °F 46% 29.85 in 10.0 mi South 12.7 mph - N/A   Clear
9:53 PM 62.1 °F - 43.0 °F 50% 29.84 in 10.0 mi South 16.1 mph 23.0 mph N/A   Clear
10:53 PM 62.1 °F - 43.0 °F 50% 29.85 in 10.0 mi South 12.7 mph - N/A   Clear
11:53 PM 57.9 °F - 43.0 °F 58% 29.84 in 10.0 mi South 11.5 mph - N/A   Clear